{"data":{"norad_id":51839,"intl_designator":"2022-019R","name":"JILIN-1 GAOFEN 03D15","alt_names":[],"object_type":"PAYLOAD","status":"ACTIVE","operator":null,"country":"PRC","launch_date":"2022-02-27","launch_site_code":"WSC","launch_vehicle":null,"mission":null,"orbit_class":"UNKNOWN","rcs_meters":null,"size_class":null,"mass_kg":null,"dimensions":null,"purposes":[],"wikipedia_slug":null,"has_3d_model":false,"image_url":null,"decayed_at":null,"tle_current":{"epoch":"2026-05-25T05:50:20.216256Z","epoch_age_seconds":54857,"freshness":"FRESH","line1":"1 51839U 22019R   26145.24328954  .00545676  13327-3  10648-2 0  9998","line2":"2 51839  97.3643 241.8927 0007535 233.0313 127.0276 16.00190049236464","mean_motion":16.00190049,"eccentricity":0.0007535,"inclination_deg":97.3643,"raan_deg":241.8927,"arg_perigee_deg":233.0313,"mean_anomaly_deg":127.0276,"bstar":0.0010648,"rev_number":23646,"period_min":89.989311013395,"perigee_km":268.87965316458,"apogee_km":278.90426080276,"semimajor_km":6652.0289569837,"source":"CELESTRAK","updated_at":"2026-05-25T13:37:57.536106Z"}}}